SQ6RR-12 Weather Reports


Display with metric or nautical units.
time (UTC)temp
F
wind
direction
speed
MPH
gust
MPH
rain 1hr
in
rain 24hr
in
rain mn
in
humidity
%
barometer
mb
20260902092732 72 0 0.0 0.0 0.00 0.00 0.00 79 1022.7
20260902092309 75 0 0.0 0.0 0.00 0.00 0.00 72 1022.7
20260902091844 74 0 0.0 0.0 0.00 0.00 0.00 78 1022.7
20260902091424 74 0 0.0 0.0 0.00 0.00 0.00 80 1022.7
20260902090957 74 0 0.0 0.0 0.00 0.00 0.00 87 1022.8
20260902090517 73 0 0.0 0.0 0.00 0.00 0.00 86 1022.8
20260902090047 73 0 0.0 0.0 0.00 0.00 0.00 80 1022.8
20260902085605 73 0 0.0 0.0 0.00 0.00 0.00 86 1022.8
20260902085137 72 0 0.0 0.0 0.00 0.00 0.00 88 1022.8
20260902084720 72 0 0.0 0.0 0.00 0.00 0.00 83 1022.9
20260902084230 71 0 0.0 0.0 0.00 0.00 0.00 88 1022.9
20260902083747 71 0 0.0 0.0 0.00 0.00 0.00 86 1023.0
20260902083311 71 0 0.0 0.0 0.00 0.00 0.00 87 1023.0
20260902082847 72 0 0.0 0.0 0.00 0.00 0.00 92 1022.9
20260902082417 71 0 0.0 0.0 0.00 0.00 0.00 91 1023.0
20260902081947 72 0 0.0 0.0 0.00 0.00 0.00 90 1023.0
20260902081517 72 0 0.0 0.0 0.00 0.00 0.00 96 1023.0
20260902081042 71 0 0.0 0.0 0.00 0.00 0.00 10 1023.0
20260902080634 71 0 0.0 0.0 0.00 0.00 0.00 10 1023.1
20260902080222 70 0 0.0 0.0 0.00 0.00 0.00 10 1023.0
20260902075752 70 0 0.0 0.0 0.00 0.00 0.00 10 1023.0
20260902075337 69 0 0.0 0.0 0.00 0.00 0.00 10 1023.1
20260902074855 68 0 0.0 0.0 0.00 0.00 0.00 10 1023.0
20260902074451 68 0 0.0 0.0 0.00 0.00 0.00 10 1023.1
20260902074022 66 0 0.0 0.0 0.00 0.00 0.00 10 1023.1
20260902073552 63 0 0.0 0.0 0.00 0.00 0.00 10 1023.0
20260902073123 61 0 0.0 0.0 0.00 0.00 0.00 10 1023.0
20260902072702 61 0 0.0 0.0 0.00 0.00 0.00 10 1023.0
20260902072217 61 0 0.0 0.0 0.00 0.00 0.00 10 1022.9
20260902071757 61 0 0.0 0.0 0.00 0.00 0.00 10 1022.9
20260902071329 61 0 0.0 0.0 0.00 0.00 0.00 10 1022.9
20260902070900 62 0 0.0 0.0 0.00 0.00 0.00 10 1022.8
20260902070442 62 0 0.0 0.0 0.00 0.00 0.00 10 1022.7
20260902065958 61 0 0.0 0.0 0.00 0.00 0.00 10 1022.8
20260902065547 61 0 0.0 0.0 0.00 0.00 0.00 10 1022.7
20260902065057 61 0 0.0 0.0 0.00 0.00 0.00 10 1022.8
20260902064624 60 0 0.0 0.0 0.00 0.00 0.00 10 1022.7
20260902064151 58 0 0.0 0.0 0.00 0.00 0.00 10 1022.7
20260902063717 58 0 0.0 0.0 0.00 0.00 0.00 10 1022.7
20260902063231 58 0 0.0 0.0 0.00 0.00 0.00 10 1022.7
20260902062747 57 0 0.0 0.0 0.00 0.00 0.00 10 1022.8
20260902062322 57 0 0.0 0.0 0.00 0.00 0.00 10 1022.8
20260902061857 57 0 0.0 0.0 0.00 0.00 0.00 10 1022.8
20260902061432 57 0 0.0 0.0 0.00 0.00 0.00 10 1022.7
20260902061005 57 0 0.0 0.0 0.00 0.00 0.00 10 1022.7
20260902060524 57 0 0.0 0.0 0.00 0.00 0.00 10 1022.7
20260902060057 57 0 0.0 0.0 0.00 0.00 0.00 10 1022.5
20260902055627 56 0 0.0 0.0 0.00 0.00 0.00 10 1022.6
20260902055151 56 0 0.0 0.0 0.00 0.00 0.00 10 1022.6
20260902054707 56 0 0.0 0.0 0.00 0.00 0.00 10 1022.6
20260902054247 56 0 0.0 0.0 0.00 0.00 0.00 10 1022.5
20260902053807 56 0 0.0 0.0 0.00 0.00 0.00 10 1022.4
20260902053322 55 0 0.0 0.0 0.00 0.00 0.00 10 1022.3
20260902052852 55 0 0.0 0.0 0.00 0.00 0.00 10 1022.4
20260902052425 54 0 0.0 0.0 0.00 0.00 0.00 10 1022.4
20260902051944 53 0 0.0 0.0 0.00 0.00 0.00 10 1022.4
20260902051505 53 0 0.0 0.0 0.00 0.00 0.00 10 1022.3
20260902051037 53 0 0.0 0.0 0.00 0.00 0.00 10 1022.3
20260902050612 53 0 0.0 0.0 0.00 0.00 0.00 10 1022.3
20260902050154 53 0 0.0 0.0 0.00 0.00 0.00 10 1022.2
20260902045722 52 0 0.0 0.0 0.00 0.00 0.00 10 1022.2
20260902045300 52 0 0.0 0.0 0.00 0.00 0.00 10 1022.3
20260902044842 52 0 0.0 0.0 0.00 0.00 0.00 10 1022.3
20260902044402 52 0 0.0 0.0 0.00 0.00 0.00 10 1022.2
20260902043927 52 0 0.0 0.0 0.00 0.00 0.00 10 1022.2
20260902043512 52 0 0.0 0.0 0.00 0.00 0.00 10 1022.2
20260902043049 52 0 0.0 0.0 0.00 0.00 0.00 10 1022.2
20260902042617 52 0 0.0 0.0 0.00 0.00 0.00 10 1022.2
20260902042127 52 0 0.0 0.0 0.00 0.00 0.00 10 1022.2
20260902041650 52 0 0.0 0.0 0.00 0.00 0.00 10 1022.2
20260902041215 52 0 0.0 0.0 0.00 0.00 0.00 10 1022.2
20260902040740 52 0 0.0 0.0 0.00 0.00 0.00 10 1022.3
20260902040312 52 0 0.0 0.0 0.00 0.00 0.00 10 1022.3
20260902035857 52 0 0.0 0.0 0.00 0.00 0.00 10 1022.3
20260902035422 52 0 0.0 0.0 0.00 0.00 0.00 10 1022.2
20260902034956 52 0 0.0 0.0 0.00 0.00 0.00 10 1022.3
20260902034552 52 0 0.0 0.0 0.00 0.00 0.00 10 1022.3
20260902034108 52 0 0.0 0.0 0.00 0.00 0.00 10 1022.3
20260902033629 52 0 0.0 0.0 0.00 0.00 0.00 10 1022.2
20260902033217 52 0 0.0 0.0 0.00 0.00 0.00 10 1022.2
20260902032737 52 0 0.0 0.0 0.00 0.00 0.00 10 1022.3
20260902032257 52 0 0.0 0.0 0.00 0.00 0.00 10 1022.3
20260902031837 52 0 0.0 0.0 0.00 0.00 0.00 10 1022.3
20260902031352 53 0 0.0 0.0 0.00 0.00 0.00 10 1022.2
20260902030932 53 0 0.0 0.0 0.00 0.00 0.00 10 1022.2
20260902030442 53 0 0.0 0.0 0.00 0.00 0.00 10 1022.2
20260902025952 52 0 0.0 0.0 0.00 0.00 0.00 10 1022.4
20260902025527 52 0 0.0 0.0 0.00 0.00 0.00 10 1022.4
20260902025106 52 0 0.0 0.0 0.00 0.00 0.00 10 1022.4
20260902024632 52 0 0.0 0.0 0.00 0.00 0.00 10 1022.6
20260902024202 51 0 0.0 0.0 0.00 0.00 0.00 10 1022.3
20260902023730 51 0 0.0 0.0 0.00 0.00 0.00 10 1022.3
20260902023257 51 0 0.0 0.0 0.00 0.00 0.00 10 1022.2
20260902022831 51 0 0.0 0.0 0.00 0.00 0.00 10 1022.2
20260902022405 51 0 0.0 0.0 0.00 0.00 0.00 10 1022.3
20260902021927 50 0 0.0 0.0 0.00 0.00 0.00 10 1022.2
20260902021501 50 0 0.0 0.0 0.00 0.00 0.00 10 1022.1
20260902021041 50 0 0.0 0.0 0.00 0.00 0.00 10 1022.1
20260902020600 51 0 0.0 0.0 0.00 0.00 0.00 10 1022.1
20260902020130 51 0 0.0 0.0 0.00 0.00 0.00 10 1022.1
20260902015657 51 0 0.0 0.0 0.00 0.00 0.00 10 1022.1
20260902015242 51 0 0.0 0.0 0.00 0.00 0.00 10 1022.1
20260902014832 51 0 0.0 0.0 0.00 0.00 0.00 10 1022.2
20260902014407 50 0 0.0 0.0 0.00 0.00 0.00 10 1022.2
20260902014001 50 0 0.0 0.0 0.00 0.00 0.00 10 1022.3
20260902013517 50 0 0.0 0.0 0.00 0.00 0.00 10 1022.3
20260902013057 51 0 0.0 0.0 0.00 0.00 0.00 10 1022.3
20260902012636 51 0 0.0 0.0 0.00 0.00 0.00 10 1022.3
20260902012207 50 0 0.0 0.0 0.00 0.00 0.00 10 1022.3
20260902011727 50 0 0.0 0.0 0.00 0.00 0.00 10 1022.4
20260902011316 50 0 0.0 0.0 0.00 0.00 0.00 10 1022.4
20260902010842 49 0 0.0 0.0 0.00 0.00 0.00 10 1022.4
20260902010356 49 0 0.0 0.0 0.00 0.00 0.00 10 1022.3
20260902005927 50 0 0.0 0.0 0.00 0.00 0.00 10 1022.3
20260902005456 50 0 0.0 0.0 0.00 0.00 0.00 10 1022.4
20260902005037 49 0 0.0 0.0 0.00 0.00 0.00 10 1022.4
20260902004612 49 0 0.0 0.0 0.00 0.00 0.00 10 1022.3
20260902004151 49 0 0.0 0.0 0.00 0.00 0.00 10 1022.4
20260902003726 49 0 0.0 0.0 0.00 0.00 0.00 10 1022.4
20260902003242 49 0 0.0 0.0 0.00 0.00 0.00 10 1022.5
20260902002812 49 0 0.0 0.0 0.00 0.00 0.00 10 1022.5
20260902002337 49 0 0.0 0.0 0.00 0.00 0.00 10 1022.5
20260902001917 49 0 0.0 0.0 0.00 0.00 0.00 10 1022.5
20260902001437 49 0 0.0 0.0 0.00 0.00 0.00 10 1022.5
20260902000959 49 0 0.0 0.0 0.00 0.00 0.00 10 1022.5
20260902000508 48 0 0.0 0.0 0.00 0.00 0.00 10 1022.5
20260902000037 49 0 0.0 0.0 0.00 0.00 0.00 10 1022.5
20260901235617 49 0 0.0 0.0 0.00 0.00 0.00 10 1022.5
20260901235152 49 0 0.0 0.0 0.00 0.00 0.00 10 1022.5
20260901234732 49 0 0.0 0.0 0.00 0.00 0.00 10 1022.5
20260901234257 50 0 0.0 0.0 0.00 0.00 0.00 10 1022.6
20260901233838 50 0 0.0 0.0 0.00 0.00 0.00 10 1022.6
20260901233422 50 0 0.0 0.0 0.00 0.00 0.00 10 1022.6
20260901232944 50 0 0.0 0.0 0.00 0.00 0.00 10 1022.6
20260901232522 50 0 0.0 0.0 0.00 0.00 0.00 10 1022.6
20260901232047 50 0 0.0 0.0 0.00 0.00 0.00 10 1022.6
20260901231610 49 0 0.0 0.0 0.00 0.00 0.00 10 1022.6
20260901231121 49 0 0.0 0.0 0.00 0.00 0.00 10 1022.6
20260901230652 49 0 0.0 0.0 0.00 0.00 0.00 10 1022.6
20260901230207 50 0 0.0 0.0 0.00 0.00 0.00 10 1022.6
20260901225723 49 0 0.0 0.0 0.00 0.00 0.00 10 1022.6
20260901225247 49 0 0.0 0.0 0.00 0.00 0.00 10 1022.6
20260901224817 49 0 0.0 0.0 0.00 0.00 0.00 10 1022.6
20260901224352 49 0 0.0 0.0 0.00 0.00 0.00 10 1022.6
20260901223912 50 0 0.0 0.0 0.00 0.00 0.00 10 1022.6
20260901223449 50 0 0.0 0.0 0.00 0.00 0.00 10 1022.6
20260901223022 50 0 0.0 0.0 0.00 0.00 0.00 10 1022.6
20260901222550 50 0 0.0 0.0 0.00 0.00 0.00 10 1022.6
20260901222106 50 0 0.0 0.0 0.00 0.00 0.00 10 1022.6
20260901221631 50 0 0.0 0.0 0.00 0.00 0.00 10 1022.6
20260901221142 50 0 0.0 0.0 0.00 0.00 0.00 10 1022.7
20260901220717 50 0 0.0 0.0 0.00 0.00 0.00 10 1022.7
20260901220237 50 0 0.0 0.0 0.00 0.00 0.00 10 1022.6
20260901215811 50 0 0.0 0.0 0.00 0.00 0.00 10 1022.7
20260901215337 50 0 0.0 0.0 0.00 0.00 0.00 10 1022.7
20260901214912 51 0 0.0 0.0 0.00 0.00 0.00 10 1022.7
20260901214437 51 0 0.0 0.0 0.00 0.00 0.00 10 1022.6
20260901214006 50 0 0.0 0.0 0.00 0.00 0.00 10 1022.5
20260901213547 50 0 0.0 0.0 0.00 0.00 0.00 10 1022.5
20260901213127 50 0 0.0 0.0 0.00 0.00 0.00 10 1022.6
20260901212657 51 0 0.0 0.0 0.00 0.00 0.00 10 1022.6
20260901212222 51 0 0.0 0.0 0.00 0.00 0.00 10 1022.6
20260901211814 51 0 0.0 0.0 0.00 0.00 0.00 10 1022.6
20260901211405 51 0 0.0 0.0 0.00 0.00 0.00 10 1022.6
20260901210932 51 0 0.0 0.0 0.00 0.00 0.00 10 1022.6
20260901210503 51 0 0.0 0.0 0.00 0.00 0.00 10 1022.6
20260901210032 51 0 0.0 0.0 0.00 0.00 0.00 10 1022.6
20260901205552 51 0 0.0 0.0 0.00 0.00 0.00 10 1022.6
20260901205112 51 0 0.0 0.0 0.00 0.00 0.00 10 1022.6
20260901204647 51 0 0.0 0.0 0.00 0.00 0.00 10 1022.5
20260901204212 51 0 0.0 0.0 0.00 0.00 0.00 10 1022.4
20260901203738 51 0 0.0 0.0 0.00 0.00 0.00 10 1022.4
20260901203332 51 0 0.0 0.0 0.00 0.00 0.00 10 1022.4
20260901202847 51 0 0.0 0.0 0.00 0.00 0.00 10 1022.3
20260901202425 52 0 0.0 0.0 0.00 0.00 0.00 10 1022.4
20260901201951 52 0 0.0 0.0 0.00 0.00 0.00 10 1022.3
20260901201532 52 0 0.0 0.0 0.00 0.00 0.00 10 1022.3
20260901201112 52 0 0.0 0.0 0.00 0.00 0.00 10 1022.2
20260901200637 52 0 0.0 0.0 0.00 0.00 0.00 10 1022.3
20260901200217 53 0 0.0 0.0 0.00 0.00 0.00 10 1022.3
20260901195736 53 0 0.0 0.0 0.00 0.00 0.00 10 1022.2
20260901195305 53 0 0.0 0.0 0.00 0.00 0.00 10 1022.2
20260901194811 53 0 0.0 0.0 0.00 0.00 0.00 10 1022.2
20260901194350 53 0 0.0 0.0 0.00 0.00 0.00 10 1022.2
20260901193921 53 0 0.0 0.0 0.00 0.00 0.00 10 1022.2
20260901193506 53 0 0.0 0.0 0.00 0.00 0.00 10 1022.2
20260901193047 53 0 0.0 0.0 0.00 0.00 0.00 10 1022.2
20260901192622 53 0 0.0 0.0 0.00 0.00 0.00 10 1022.2
20260901192145 53 0 0.0 0.0 0.00 0.00 0.00 10 1022.2
20260901191719 54 0 0.0 0.0 0.00 0.00 0.00 10 1022.2
20260901191257 54 0 0.0 0.0 0.00 0.00 0.00 10 1022.2
20260901190832 54 0 0.0 0.0 0.00 0.00 0.00 10 1022.2
20260901190355 54 0 0.0 0.0 0.00 0.00 0.00 10 1022.2
20260901185925 55 0 0.0 0.0 0.00 0.00 0.00 10 1022.1
20260901185437 55 0 0.0 0.0 0.00 0.00 0.00 10 1022.1
20260901185011 56 0 0.0 0.0 0.00 0.00 0.00 10 1022.1
20260901184602 56 0 0.0 0.0 0.00 0.00 0.00 10 1022.1
20260901184123 55 0 0.0 0.0 0.00 0.00 0.00 10 1022.0
20260901183716 55 0 0.0 0.0 0.00 0.00 0.00 10 1022.0
20260901183307 55 0 0.0 0.0 0.00 0.00 0.00 10 1022.0
20260901182837 56 0 0.0 0.0 0.00 0.00 0.00 10 1022.0
20260901182411 56 0 0.0 0.0 0.00 0.00 0.00 10 1021.9
20260901181935 57 0 0.0 0.0 0.00 0.00 0.00 10 1022.0
20260901181452 59 0 0.0 0.0 0.00 0.00 0.00 10 1021.8
20260901181013 58 0 0.0 0.0 0.00 0.00 0.00 10 1021.8
20260901180544 58 0 0.0 0.0 0.00 0.00 0.00 10 1021.8
20260901180122 58 0 0.0 0.0 0.00 0.00 0.00 10 1021.7
20260901175641 59 0 0.0 0.0 0.00 0.00 0.00 10 1021.6
20260901175212 59 0 0.0 0.0 0.00 0.00 0.00 10 1021.5
20260901174728 60 0 0.0 0.0 0.00 0.00 0.00 10 1021.5
20260901174252 61 0 0.0 0.0 0.00 0.00 0.00 10 1021.5
20260901173835 62 0 0.0 0.0 0.00 0.00 0.00 10 1021.4
20260901173417 62 0 0.0 0.0 0.00 0.00 0.00 10 1021.4
20260901172952 62 0 0.0 0.0 0.00 0.00 0.00 10 1021.4
20260901172521 63 0 0.0 0.0 0.00 0.00 0.00 10 1021.3
20260901172027 64 0 0.0 0.0 0.00 0.00 0.00 86 1021.3
20260901171602 65 0 0.0 0.0 0.00 0.00 0.00 81 1021.2
20260901171131 67 0 0.0 0.0 0.00 0.00 0.00 78 1021.2
20260901170656 70 0 0.0 0.0 0.00 0.00 0.00 77 1021.1
20260901170226 71 0 0.0 0.0 0.00 0.00 0.00 79 1021.2
20260901165744 71 0 0.0 0.0 0.00 0.00 0.00 77 1021.2
20260901165330 71 0 0.0 0.0 0.00 0.00 0.00 78 1021.1
20260901164855 71 0 0.0 0.0 0.00 0.00 0.00 81 1021.1
20260901164415 71 0 0.0 0.0 0.00 0.00 0.00 78 1021.1
20260901163937 69 0 0.0 0.0 0.00 0.00 0.00 82 1021.0
20260901163507 68 0 0.0 0.0 0.00 0.00 0.00 83 1021.0
20260901163047 67 0 0.0 0.0 0.00 0.00 0.00 79 1021.0
20260901162612 68 0 0.0 0.0 0.00 0.00 0.00 74 1021.1
20260901162146 70 0 0.0 0.0 0.00 0.00 0.00 68 1021.1
20260901161722 73 0 0.0 0.0 0.00 0.00 0.00 68 1021.1
20260901161252 73 0 0.0 0.0 0.00 0.00 0.00 66 1021.1
20260901160810 76 0 0.0 0.0 0.00 0.00 0.00 61 1021.2
20260901160355 76 0 0.0 0.0 0.00 0.00 0.00 62 1021.2
20260901155932 75 0 0.0 0.0 0.00 0.00 0.00 65 1021.1
20260901155446 75 0 0.0 0.0 0.00 0.00 0.00 64 1021.1
20260901155010 74 0 0.0 0.0 0.00 0.00 0.00 67 1021.0
20260901154539 74 0 0.0 0.0 0.00 0.00 0.00 65 1021.0
20260901154108 71 0 0.0 0.0 0.00 0.00 0.00 74 1021.1
20260901153637 68 0 0.0 0.0 0.00 0.00 0.00 77 1021.1
20260901153221 69 0 0.0 0.0 0.00 0.00 0.00 74 1021.0
20260901152742 70 0 0.0 0.0 0.00 0.00 0.00 71 1021.0
20260901152326 69 0 0.0 0.0 0.00 0.00 0.00 74 1021.0
20260901151902 69 0 0.0 0.0 0.00 0.00 0.00 70 1021.0
20260901151440 72 0 0.0 0.0 0.00 0.00 0.00 67 1021.1
20260901151010 73 0 0.0 0.0 0.00 0.00 0.00 62 1021.1
20260901150532 75 0 0.0 0.0 0.00 0.00 0.00 60 1021.0
20260901150107 75 0 0.0 0.0 0.00 0.00 0.00 58 1021.0
20260901145656 74 0 0.0 0.0 0.00 0.00 0.00 61 1021.0
20260901145232 74 0 0.0 0.0 0.00 0.00 0.00 63 1021.1
20260901144801 75 0 0.0 0.0 0.00 0.00 0.00 61 1021.1
20260901144336 76 0 0.0 0.0 0.00 0.00 0.00 60 1021.2
20260901143932 75 0 0.0 0.0 0.00 0.00 0.00 62 1021.0
20260901143512 74 0 0.0 0.0 0.00 0.00 0.00 63 1021.1
20260901143040 73 0 0.0 0.0 0.00 0.00 0.00 64 1021.1
20260901142619 73 0 0.0 0.0 0.00 0.00 0.00 63 1021.1
20260901142142 73 0 0.0 0.0 0.00 0.00 0.00 68 1021.1
20260901141712 74 0 0.0 0.0 0.00 0.00 0.00 65 1021.1
20260901141247 75 0 0.0 0.0 0.00 0.00 0.00 67 1021.1
20260901140822 76 0 0.0 0.0 0.00 0.00 0.00 64 1021.2
20260901140359 76 0 0.0 0.0 0.00 0.00 0.00 64 1021.3
20260901135924 75 0 0.0 0.0 0.00 0.00 0.00 67 1021.3
20260901135440 73 0 0.0 0.0 0.00 0.00 0.00 70 1021.2
20260901135007 72 0 0.0 0.0 0.00 0.00 0.00 71 1021.3
20260901134525 73 0 0.0 0.0 0.00 0.00 0.00 68 1021.3
20260901134047 74 0 0.0 0.0 0.00 0.00 0.00 68 1021.3
20260901133645 74 0 0.0 0.0 0.00 0.00 0.00 69 1021.3
20260901133222 75 0 0.0 0.0 0.00 0.00 0.00 67 1021.4
20260901132802 72 0 0.0 0.0 0.00 0.00 0.00 75 1021.4
20260901132331 70 0 0.0 0.0 0.00 0.00 0.00 80 1021.4
20260901131902 67 0 0.0 0.0 0.00 0.00 0.00 85 1021.4
20260901131432 68 0 0.0 0.0 0.00 0.00 0.00 83 1021.5
20260901131002 68 0 0.0 0.0 0.00 0.00 0.00 79 1021.4
20260901130537 70 0 0.0 0.0 0.00 0.00 0.00 75 1021.4
20260901125628 74 0 0.0 0.0 0.00 0.00 0.00 77 1021.3
20260901125148 71 0 0.0 0.0 0.00 0.00 0.00 82 1021.5
20260901124702 68 0 0.0 0.0 0.00 0.00 0.00 85 1021.4
20260901124240 68 0 0.0 0.0 0.00 0.00 0.00 80 1021.5
20260901123801 69 0 0.0 0.0 0.00 0.00 0.00 77 1021.4
20260901123347 71 0 0.0 0.0 0.00 0.00 0.00 72 1021.4
20260901122922 73 0 0.0 0.0 0.00 0.00 0.00 70 1021.4
20260901122506 73 0 0.0 0.0 0.00 0.00 0.00 70 1021.4
20260901122022 74 0 0.0 0.0 0.00 0.00 0.00 68 1021.4
20260901121607 73 0 0.0 0.0 0.00 0.00 0.00 73 1021.5
20260901121120 73 0 0.0 0.0 0.00 0.00 0.00 70 1021.5
20260901120646 71 0 0.0 0.0 0.00 0.00 0.00 75 1021.4
20260901120220 70 0 0.0 0.0 0.00 0.00 0.00 80 1021.4
20260901115732 69 0 0.0 0.0 0.00 0.00 0.00 79 1021.5
20260901115300 71 0 0.0 0.0 0.00 0.00 0.00 73 1021.6
20260901114836 71 0 0.0 0.0 0.00 0.00 0.00 79 1021.5
20260901114357 69 0 0.0 0.0 0.00 0.00 0.00 83 1021.6
20260901113937 69 0 0.0 0.0 0.00 0.00 0.00 77 1021.5
20260901113517 68 0 0.0 0.0 0.00 0.00 0.00 82 1021.5
20260901113037 68 0 0.0 0.0 0.00 0.00 0.00 82 1021.6
20260901112554 66 0 0.0 0.0 0.00 0.00 0.00 87 1021.6
20260901112127 67 0 0.0 0.0 0.00 0.00 0.00 85 1021.5
20260901111649 66 0 0.0 0.0 0.00 0.00 0.00 85 1021.5
20260901111222 66 0 0.0 0.0 0.00 0.00 0.00 85 1021.6
20260901110756 67 0 0.0 0.0 0.00 0.00 0.00 86 1021.6
20260901110310 68 0 0.0 0.0 0.00 0.00 0.00 82 1021.5
20260901105837 67 0 0.0 0.0 0.00 0.00 0.00 84 1021.4
20260901105415 68 0 0.0 0.0 0.00 0.00 0.00 83 1021.4
20260901105001 69 0 0.0 0.0 0.00 0.00 0.00 82 1021.5
20260901104532 69 0 0.0 0.0 0.00 0.00 0.00 83 1021.3
20260901104102 69 0 0.0 0.0 0.00 0.00 0.00 84 1021.4
20260901103641 68 0 0.0 0.0 0.00 0.00 0.00 87 1021.3
20260901103222 67 0 0.0 0.0 0.00 0.00 0.00 88 1021.2
20260901102802 68 0 0.0 0.0 0.00 0.00 0.00 84 1021.2
20260901102333 68 0 0.0 0.0 0.00 0.00 0.00 81 1021.1
20260901101852 68 0 0.0 0.0 0.00 0.00 0.00 85 1021.1
20260901101421 67 0 0.0 0.0 0.00 0.00 0.00 86 1021.0
20260901100957 68 0 0.0 0.0 0.00 0.00 0.00 82 1021.0
20260901100527 67 0 0.0 0.0 0.00 0.00 0.00 85 1021.0
20260901100047 67 0 0.0 0.0 0.00 0.00 0.00 86 1020.9
20260901095617 69 0 0.0 0.0 0.00 0.00 0.00 81 1020.9
20260901095157 69 0 0.0 0.0 0.00 0.00 0.00 83 1020.8
20260901094736 69 0 0.0 0.0 0.00 0.00 0.00 82 1020.7
20260901094257 67 0 0.0 0.0 0.00 0.00 0.00 88 1020.7
20260901093829 67 0 0.0 0.0 0.00 0.00 0.00 87 1020.7
20260901093417 67 0 0.0 0.0 0.00 0.00 0.00 87 1020.7